Location: Unspecified
(0.0000°N, 0.0000°E)
Time: 05:50:21
(UTC+00:00)

METEOR M2 - Pass Details

Date: 13 July 2020
Orbit: 818 x 828 km, 98.5° (Epoch: 13 August)

Event Time Altitude Azimuth Distance (km) Brightness Sun altitude
Exits shadow 21:12:04 13° 262° (W) 2,234 ? -42.4°
Drops below altitude 10° 21:13:55 10° 283° (WNW) 2,425 ? -42.8°
Sets 21:17:42 0° 310° (NW) 3,355 ? -43.6°
